Probability
0 0 0 0 0 0 0 0 0 0 0 0 0 0 0 0 0 0 0 0 0 0 0 0 0 0 0 0 0 0 1 1 0 0 0 0 0 0 0 0 0 0 0
0 0 0 0 0 0 0 0 0 0 0 0 0 0 0 0 0 0 0 0 0 0 0 0 0 0 0 0 0 1 2 2 1 0 0 0 0 0 0 0 0 0 0
0 0 0 0 0 0 0 0 0 0 0 0 0 0 0 0 0 0 0 0 0 0 0 0 0 0 0 1 1 1 2 3 2 1 0 0 0 0 0 0 0 0 0
0 0 0 0 0 0 0 0 0 0 0 0 0 0 0 0 0 0 0 0 0 0 0 0 0 0 0 1 1 2 3 3 3 3 1 1 1 0 0 0 0 0 0
0 0 0 0 0 0 0 0 0 0 0 0 0 0 0 0 0 0 0 0 0 0 0 0 0 0 0 0 0 1 3 4 4 4 3 2 2 1 0 0 0 0 0
0 0 0 0 0 0 0 0 0 0 0 0 0 0 0 0 0 0 0 0 0 0 0 0 0 0 0 0 0 1 2 3 4 5 5 3 3 2 1 0 0 0 0
0 0 0 0 0 0 0 0 0 0 0 0 0 0 0 0 0 0 0 0 0 0 0 0 0 0 0 0 0 0 1 1 4 6 6 4 3 3 2 1 0 0 0
0 0 0 0 0 0 0 0 0 0 0 0 0 0 0 0 0 0 0 0 0 0 0 0 0 0 0 0 0 0 0 1 3 5 6 5 4 4 3 2 1 1 0
0 0 0 0 0 0 0 0 0 0 0 0 0 0 0 0 0 0 0 0 0 0 0 0 0 0 0 0 0 0 0 0 1 3 3 4 4 4 4 3 3 2 1
0 0 0 0 0 0 0 0 0 0 0 0 0 0 0 0 0 0 0 0 0 0 0 0 0 0 0 0 0 0 0 0 0 1 1 2 3 3 4 4 3 3 3
0 0 0 0 0 0 0 0 0 0 0 0 0 0 0 0 0 0 0 0 0 0 0 0 0 0 0 0 0 0 0 0 0 0 0 1 1 1 2 3 3 3 3
0 0 0 0 0 0 0 0 0 0 0 0 0 0 0 0 0 0 0 0 0 0 0 0 0 0 0 0 0 0 0 0 0 0 0 0 0 0 1 1 1 2 2
0 0 0 0 0 0 0 0 0 0 0 0 0 0 0 0 0 0 0 0 0 0 0 0 0 0 0 0 0 0 0 0 0 0 0 0 0 0 0 0 0 1 1
1 0 0 0 0 0 0 0 0 0 0 0 0 0 0 0 0 0 0 0 0 0 0 0 0 0 0 0 0 0 0 0 0 0 0 0 0 0 0 0 0 0 1
2 1 1 0 0 0 0 0 0 0 0 0 0 0 0 0 0 0 0 0 0 0 0 0 0 0 0 0 0 0 0 0 0 0 0 0 0 0 0 0 0 0 1
2 2 2 1 0 0 0 0 0 0 0 0 0 0 0 0 0 0 0 0 0 0 0 0 0 0 0 0 0 0 0 0 0 0 0 0 0 0 0 0 0 0 1
2 3 3 1 0 0 0 0 0 0 0 0 0 0 0 0 0 0 0 0 0 0 0 0 0 0 0 0 0 0 0 0 0 0 0 0 0 0 0 0 0 0 0
2 3 3 2 1 0 0 0 0 0 0 0 0 0 0 0 0 0 0 0 0 0 0 0 0 0 0 0 0 0 0 0 0 0 0 0 0 0 0 0 0 0 0
3 3 3 3 2 1 0 0 0 0 0 0 0 0 0 0 0 0 0 0 0 0 0 0 0 0 0 0 0 0 0 0 0 0 0 0 0 0 0 0 0 0 0
3 3 3 3 2 1 0 0 0 0 0 0 0 0 0 0 0 0 0 0 0 0 0 0 0 0 0 0 0 0 0 0 0 0 0 0 0 0 0 0 0 0 0
3 3 3 2 1 1 0 0 0 0 0 0 0 0 0 0 0 0 0 0 0 0 0 0 0 0 0 0 0 0 0 0 0 0 0 0 0 0 0 0 0 0 0
1 2 2 1 0 0 0 0 0 0 0 0 0 0 0 0 0 0 0 0 0 0 0 0 0 0 0 0 0 0 0 0 0 0 0 0 0 0 0 0 0 0 0
0 1 1 0 0 0 0 0 0 0 0 0 0 0 0 0 0 0 0 0 0 0 0 0 0 0 0 0 0 0 0 0 0 0 0 0 0 0 0 0 0 0 0
0 0 0 0 0 0 0 0 0 0 0 0 0 0 0 0 0 0 0 0 0 0 0 0 0 0 0 0 0 0 0 0 0 0 0 0 0 0 0 0 0 0 0
0 0 0 0 0 0 0 0 0 0 0 0 0 0 0 0 0 0 0 0 0 0 0 0 0 0 0 0 0 0 0 0 0 0 0 0 0 0 0 0 0 0 0
0 0 0 0 0 0 0 0 0 0 0 0 0 0 0 0 0 0 0 0 0 0 0 0 0 0 0 0 0 0 0 0 0 0 0 0 0 0 0 0 0 0 0
Wind_Speed
2 2 1 1 1 1 1 1 1 1 1 1 1 1 1 1 1 1 1 3 4 3 3 2 2 3 3 3 4 4 4 3 4 4 3 3 3 3 3 4 4 4 4
1 2 2 1 1 1 1 1 1 1 1 0 0 1 1 1 1 1 1 1 2 4 3 3 3 3 3 4 4 4 4 3 4 4 4 4 3 4 4 4 4 4 4
2 2 2 2 1 1 1 1 1 0 1 1 1 0 1 1 1 2 2 1 1 2 3 3 3 4 4 4 4 4 4 4 4 5 5 4 4 4 5 5 5 4 4
2 2 1 1 1 1 1 1 1 1 1 1 1 1 1 1 1 2 2 2 1 1 1 3 3 3 4 5 4 4 4 4 4 5 6 5 4 4 5 5 5 4 4
2 2 2 1 2 2 2 1 1 1 1 1 1 1 1 2 2 2 2 2 2 2 2 2 2 3 4 5 5 5 5 5 5 5 5 6 5 5 5 5 5 5 5
3 3 2 2 2 2 2 1 1 1 1 1 1 2 2 2 2 2 2 1 1 2 2 2 2 1 3 4 5 6 5 5 5 5 6 6 6 5 5 5 5 5 5
2 3 2 3 3 2 3 2 2 2 1 1 1 2 2 3 2 2 2 2 2 2 2 2 2 2 2 3 4 6 6 6 5 5 6 6 6 6 6 5 5 5 6
2 2 3 3 3 3 3 3 2 1 1 1 2 2 2 3 2 2 2 2 2 2 2 2 2 2 2 2 3 5 6 7 6 6 6 6 6 7 7 6 6 6 6
3 2 3 3 3 4 4 4 4 3 2 2 2 2 2 2 1 2 3 2 2 2 2 2 2 2 3 3 3 3 6 7 7 7 7 7 7 8 8 7 7 7 7
2 2 3 3 3 3 4 4 4 3 3 3 2 2 3 2 2 2 2 2 3 3 3 2 2 2 3 3 3 4 6 7 8 7 7 7 8 8 9 8 8 8 8
2 2 3 3 3 3 4 4 4 4 3 3 3 2 2 2 3 4 4 3 2 2 3 3 3 3 3 3 3 4 5 6 7 7 7 7 8 8 9 9 8 8 8
2 2 3 3 3 3 4 4 4 5 4 4 4 3 3 3 3 4 4 4 4 3 3 3 3 3 3 3 3 4 5 5 6 6 7 8 8 8 9 9 9 9 9
2 2 3 3 3 3 4 4 4 4 5 6 5 4 4 4 3 3 4 4 4 3 3 3 3 3 3 3 3 4 4 5 6 6 7 8 8 8 9 10 10 9 9
2 3 3 3 3 4 4 4 4 4 4 5 5 5 4 4 3 3 3 3 4 4 4 4 2 2 2 3 3 4 4 4 5 6 7 7 8 8 9 10 10 9 9
2 3 3 3 3 3 4 4 3 4 4 4 4 4 4 3 3 3 3 3 4 4 5 3 2 2 2 2 3 3 3 4 6 7 7 8 8 8 9 9 9 9 9
2 3 3 3 3 3 3 3 3 4 4 4 3 4 4 3 3 3 3 3 4 5 5 3 3 3 3 3 3 4 4 5 5 7 8 8 8 8 8 8 8 9 9
2 3 3 3 3 3 3 3 3 3 4 4 4 5 5 4 4 4 3 3 4 4 5 5 4 3 4 4 3 3 3 4 4 6 7 8 8 8 8 8 8 8 8
2 2 3 3 3 3 3 3 3 4 4 4 5 5 5 4 5 4 4 4 4 4 5 6 4 4 4 4 4 4 3 3 4 5 7 7 7 8 8 7 7 7 7
2 2 3 3 3 3 3 3 4 4 4 4 4 5 5 5 5 4 5 5 4 4 4 5 5 4 3 3 4 4 4 3 3 4 6 6 7 7 7 7 7 7 7
2 2 3 3 3 3 3 3 3 3 3 3 3 4 4 5 5 5 5 5 4 4 4 4 4 4 3 3 3 3 4 3 3 3 4 5 6 7 7 7 7 7 7
2 2 2 2 3 3 3 3 3 3 3 3 3 3 3 4 5 5 4 4 4 4 4 4 4 4 3 3 3 3 4 3 3 3 4 3 4 4 4 5 6 6 7
2 2 2 2 2 2 3 3 3 3 3 3 3 3 3 4 4 5 6 6 6 5 5 5 4 5 5 4 3 3 3 3 3 2 3 4 3 4 3 3 5 7 7
2 2 2 2 2 2 3 3 3 3 3 4 4 3 3 3 3 4 5 5 6 7 7 6 6 6 5 4 4 4 4 4 4 2 3 4 3 4 4 4 6 7 7
2 2 2 2 2 2 3 3 4 3 3 3 3 4 4 4 3 3 3 4 4 4 5 5 5 6 5 4 4 4 4 4 4 3 2 4 4 4 4 4 5 6 7
3 2 2 2 2 2 3 3 3 2 2 3 3 3 4 4 4 4 3 4 4 4 4 5 5 5 5 5 4 2 3 3 4 3 2 3 3 4 4 4 4 6 7
2 2 2 2 3 3 3 3 3 1 2 2 2 2 3 3 3 3 3 3 4 3 3 3 3 4 4 4 4 4 3 4 3 3 2 2 3 3 4 3 2 3 4
Wind_Direction
174 179 172 158 142 132 139 133 114 104 89 65 53 45 28 22 18 0 22 28 359 347 342 347 344 341 339 338 342 338 342 330 348 350 339 339 333 326 329 326 323 291 270
177 181 169 161 149 140 137 154 147 160 144 103 66 24 355 340 347 327 327 15 8 347 341 334 336 340 340 332 332 334 333 331 340 343 337 327 330 332 330 331 321 306 291
184 184 181 173 161 155 147 138 130 146 133 159 176 239 291 314 323 315 314 316 308 347 343 336 340 338 331 324 323 326 325 327 338 350 346 330 331 330 326 318 318 320 308
190 186 188 182 170 168 172 168 168 183 190 222 228 232 249 269 290 298 301 310 308 307 337 347 339 331 321 317 316 323 325 330 334 336 342 334 325 329 330 318 309 312 314
198 193 196 182 178 182 184 183 195 215 228 250 257 255 252 257 272 273 285 303 308 306 303 334 334 333 324 320 319 319 316 320 328 331 332 333 320 315 318 319 315 305 300
203 196 189 182 184 189 188 192 196 212 251 262 265 263 259 261 265 270 275 288 294 294 297 306 300 321 331 326 328 328 320 318 318 326 322 318 321 307 303 305 307 309 302
221 204 192 187 194 201 200 194 191 189 220 251 251 258 247 243 248 249 259 276 284 289 291 295 306 314 297 306 320 329 328 315 312 318 320 312 315 310 303 299 298 295 299
230 216 209 203 200 203 200 196 189 191 200 221 248 259 253 226 223 243 255 263 272 270 270 279 291 298 298 290 311 323 329 324 313 313 317 312 314 317 303 298 297 293 291
235 227 218 216 209 208 206 202 203 202 202 213 245 256 252 253 280 229 247 261 260 253 254 264 283 291 292 293 291 313 326 324 316 309 312 311 308 313 311 295 292 290 286
242 236 226 217 213 219 215 210 213 218 209 211 223 258 277 290 263 260 233 251 266 260 259 267 270 272 279 282 293 314 323 321 315 310 307 306 304 303 308 299 291 285 284
239 241 238 224 216 221 222 216 214 218 217 218 216 225 242 257 263 258 265 265 264 253 256 265 271 268 269 274 278 300 315 314 314 310 305 300 301 301 302 299 289 289 287
240 245 246 237 228 226 224 222 221 219 220 223 224 224 229 234 236 242 257 269 274 275 270 259 264 268 270 271 277 299 297 306 309 308 306 305 304 302 299 302 291 284 283
254 256 249 240 234 233 230 224 222 225 222 223 225 230 237 247 251 250 255 266 273 277 271 256 258 264 272 276 278 292 277 297 302 303 304 307 307 306 301 301 297 285 280
248 252 246 246 239 231 227 223 222 225 227 226 227 229 234 242 243 246 252 255 268 266 261 266 264 261 271 275 303 294 279 292 301 301 303 303 305 306 306 297 296 288 280
263 254 244 244 244 236 228 222 223 221 225 227 228 230 233 236 240 249 253 250 255 262 263 266 272 280 290 289 307 288 288 299 297 299 298 298 299 298 304 304 297 296 287
263 255 253 249 246 242 234 228 230 224 225 229 227 229 235 235 231 237 245 253 253 258 263 275 282 300 301 299 301 288 286 290 283 292 293 293 294 295 298 305 300 295 294
259 251 250 248 245 239 236 233 231 233 229 232 231 230 233 235 232 230 237 243 243 245 256 272 278 288 287 291 297 293 291 288 283 288 290 291 293 295 298 301 304 304 303
259 253 250 246 243 238 232 232 230 234 234 232 231 228 231 232 234 233 232 236 239 241 249 265 276 279 281 289 292 292 294 289 289 295 292 291 293 295 296 298 298 299 300
257 250 245 242 242 237 232 234 233 237 241 239 236 232 233 228 232 234 234 237 239 243 247 258 271 277 279 288 287 285 289 288 293 296 290 287 292 296 298 299 300 301 302
261 248 245 243 243 238 233 234 236 237 242 246 246 243 239 234 237 237 238 238 240 241 246 252 264 272 274 283 280 279 285 288 290 301 292 290 292 290 293 296 299 303 302
289 268 250 246 243 238 237 234 235 237 241 248 252 255 253 248 249 246 245 245 241 240 241 246 252 264 265 265 265 280 281 296 291 295 293 289 290 285 285 288 293 297 296
300 294 271 257 251 249 267 258 251 239 237 241 248 256 256 251 252 251 255 252 246 244 245 248 253 253 266 265 269 267 272 286 285 295 293 289 287 280 286 285 301 298 297
306 293 290 282 270 275 286 269 261 245 234 236 240 248 256 258 257 254 256 255 252 252 249 251 257 260 267 265 261 261 260 265 271 300 293 281 281 276 285 291 302 297 299
303 303 306 300 286 293 301 301 289 251 246 248 244 243 247 252 252 251 248 253 259 262 258 251 258 265 267 270 257 258 265 272 275 266 266 274 279 279 285 281 295 300 304
300 304 310 308 296 291 288 289 297 268 257 261 259 253 250 249 251 237 242 249 261 276 286 275 276 281 281 277 264 249 246 253 263 262 251 269 283 292 285 273 284 296 302
296 310 318 314 301 296 301 297 293 268 273 286 288 276 263 258 255 250 248 247 256 270 281 291 287 283 276 270 261 248 240 242 257 259 234 256 277 295 287 275 285 296 297